Theta_e
333 334 333 333 333 333 334 334 334 334 334 333 333 334 335 334 333 332 332 333 333 333 333 332 333 333 333 334 333 333 334 334 333 333 334 335 335 335 335 334 334 334 334 334 334 334 334 334 334 333 332 332 332 331 331 331 330 329 329 329 330 330 330 329 330 330 328 327 328 328 328 328 328 328 329 328 328 328 328 328 328 329 329 329 330
333 334 333 333 333 333 333 333 334 334 333 333 333 333 333 333 332 332 332 332 333 334 333 333 333 333 333 334 334 334 334 333 332 333 334 335 335 335 335 335 334 334 335 334 334 334 334 334 333 332 332 332 332 331 331 331 330 329 329 331 331 330 330 330 330 330 328 327 326 326 327 328 327 327 329 329 328 328 328 327 327 327 328 328 329
334 334 334 334 333 333 333 333 333 333 333 332 332 332 332 332 332 333 333 333 333 334 333 333 334 333 333 333 333 333 333 333 333 333 334 334 334 334 335 335 334 334 334 334 334 334 334 334 332 331 331 332 332 331 331 331 329 329 329 331 331 331 331 330 330 330 329 328 326 327 328 328 327 325 326 328 328 327 327 326 326 326 327 328 328
335 335 335 335 333 332 332 332 332 332 333 332 331 332 332 332 332 333 334 334 334 334 333 333 334 333 333 333 334 333 332 333 333 332 333 334 334 334 334 333 333 333 333 333 333 334 334 333 331 331 332 333 332 332 332 331 330 329 329 330 330 330 330 330 330 330 329 328 328 328 325 326 330 325 321 324 327 327 326 325 325 326 326 327 327
337 337 336 335 333 332 331 332 332 332 332 332 331 332 332 332 333 333 334 334 333 334 334 333 334 334 334 334 334 333 331 332 332 333 334 334 333 333 333 333 333 333 333 333 333 333 334 332 331 331 332 333 333 332 333 332 331 329 329 330 330 330 330 330 330 329 329 328 329 329 327 329 331 325 321 322 324 326 326 325 326 325 325 326 326
337 337 336 335 332 331 332 332 332 332 332 332 332 332 332 333 333 333 333 333 333 334 334 334 334 334 334 334 333 332 332 332 333 334 333 333 332 332 332 332 332 333 332 332 332 332 332 332 332 332 332 332 332 332 333 332 331 331 330 330 330 330 330 330 330 329 329 328 328 328 329 330 327 323 325 324 321 324 326 326 326 325 325 325 325
337 336 335 334 332 332 332 332 332 332 333 332 332 333 333 333 333 333 333 333 334 334 335 334 334 333 332 332 331 332 333 333 333 333 332 332 331 330 331 331 331 331 331 331 331 331 331 331 331 332 331 332 332 331 332 332 332 332 331 330 330 330 330 330 330 330 329 329 329 328 327 328 325 322 325 324 323 324 323 324 326 324 325 325 325
337 336 335 333 332 332 332 332 332 332 333 333 333 333 333 333 333 333 333 333 334 334 335 334 332 331 330 330 331 332 332 332 333 332 331 330 329 329 329 329 330 330 330 330 330 330 330 330 330 330 330 331 331 331 332 332 331 332 332 331 330 330 330 330 330 330 329 329 329 328 327 326 324 322 322 322 324 325 322 322 324 325 325 326 325
336 335 335 332 331 332 331 332 332 332 333 333 334 334 333 333 332 332 333 333 333 334 334 333 331 329 329 331 331 331 330 331 331 331 330 328 327 327 327 327 327 327 327 327 327 328 327 328 328 329 329 330 330 331 332 332 332 332 332 331 330 330 330 330 330 330 329 329 328 327 326 324 322 321 321 320 322 325 324 320 320 324 325 325 325
335 334 333 331 331 331 331 331 332 332 333 334 334 334 333 333 333 332 332 333 333 333 331 330 329 328 329 330 330 330 329 329 330 328 328 327 326 326 326 326 326 326 326 325 325 326 325 326 326 327 328 329 329 330 332 332 332 332 331 331 331 329 329 329 330 330 329 329 328 327 325 322 320 319 320 320 320 321 323 319 318 322 323 323 325
335 335 333 331 330 331 331 331 331 332 333 334 334 334 334 334 333 332 333 333 331 329 328 328 328 329 329 330 329 328 328 329 329 327 327 326 326 326 326 326 326 326 325 325 325 325 324 324 324 325 326 328 328 329 330 331 331 331 331 330 330 329 329 329 329 329 329 329 328 327 325 323 321 319 319 321 319 318 320 318 316 319 321 320 323
335 335 333 332 330 330 330 330 331 332 332 333 334 334 335 334 332 332 331 330 327 326 327 328 328 329 329 329 328 328 328 328 328 327 326 326 326 326 325 325 325 325 325 325 325 325 324 324 324 324 325 327 328 327 328 329 330 330 329 329 329 328 328 328 328 328 328 328 328 327 326 323 321 321 320 321 321 320 320 317 315 318 319 317 319
335 335 334 332 331 330 329 329 330 331 331 332 333 333 333 331 330 330 328 327 326 326 327 327 328 329 328 328 327 327 327 326 326 326 326 325 325 325 325 325 325 325 325 324 324 324 324 324 324 324 325 326 327 327 327 327 329 330 329 328 329 328 328 328 328 328 327 327 328 328 327 325 321 320 321 321 321 320 318 315 314 318 317 314 314
336 335 334 333 332 330 329 330 330 330 331 331 331 332 331 330 329 328 327 325 325 325 325 325 327 327 326 326 326 325 324 323 323 325 326 325 324 325 325 325 325 324 324 324 324 324 324 324 324 325 326 326 326 326 326 326 328 329 329 328 328 328 328 327 327 327 327 328 328 328 327 326 323 321 320 320 320 319 318 315 313 314 315 313 312
336 335 335 333 333 331 330 330 330 330 330 330 331 330 330 329 328 327 327 326 324 324 326 326 325 324 324 324 324 323 322 322 323 324 325 325 324 324 324 324 323 323 323 324 324 324 323 324 325 325 325 325 325 324 325 327 328 328 329 328 328 328 327 327 327 326 327 328 328 328 327 326 325 321 319 319 319 319 318 316 315 313 313 311 310
336 335 335 334 334 332 330 331 330 330 330 330 331 330 330 329 328 327 327 326 325 325 327 327 324 323 324 323 322 322 321 322 323 323 324 324 324 324 324 323 322 321 323 324 324 323 323 323 323 324 324 324 325 325 327 328 328 329 329 328 328 327 327 327 327 326 327 328 328 328 327 327 325 323 320 319 318 317 316 316 316 315 313 311 309
336 335 335 335 335 333 332 331 330 330 330 330 330 330 329 329 328 329 328 327 327 327 327 327 325 323 323 322 322 320 320 320 321 322 322 323 323 324 324 323 322 322 323 324 324 323 323 323 323 323 324 326 326 328 328 328 329 328 328 328 327 327 327 325 324 324 326 327 327 326 326 326 326 324 323 320 316 315 315 314 314 314 314 313 312
335 335 335 335 335 334 333 332 331 331 330 330 331 330 330 329 329 329 329 329 329 328 327 327 325 323 322 321 321 319 319 320 320 321 322 323 323 324 323 322 322 323 323 323 323 323 322 322 323 323 325 327 328 328 328 327 328 328 328 327 325 323 321 319 319 321 321 321 320 319 319 322 323 323 324 322 316 313 314 314 314 314 313 313 313
335 334 335 335 335 334 333 332 331 331 330 330 331 330 330 330 330 330 330 329 329 327 325 325 324 322 321 321 321 320 321 321 321 321 322 322 323 323 323 323 323 324 323 324 323 323 321 321 322 323 324 326 327 327 327 327 327 327 325 322 318 315 315 315 316 317 316 316 315 315 315 315 317 318 319 321 318 314 313 314 315 315 313 312 311
334 333 334 334 333 333 333 332 332 331 330 330 330 330 330 331 331 330 330 329 327 324 323 323 322 321 322 321 321 321 322 322 322 321 321 321 322 323 323 323 323 323 322 323 323 322 321 320 321 323 323 324 325 325 325 325 325 322 318 315 314 313 313 313 314 314 315 315 315 315 315 315 316 316 316 320 322 316 313 314 315 315 313 312 311
329 329 329 329 329 329 329 328 328 327 329 330 330 330 330 331 331 330 330 329 326 322 321 322 322 322 322 321 321 321 321 321 321 320 321 321 322 323 323 322 322 321 320 320 322 322 320 319 319 322 323 322 323 323 323 323 322 319 316 314 314 313 313 313 314 314 315 316 315 315 315 315 316 317 317 320 322 317 313 313 314 313 312 310 309
324 324 326 325 325 325 325 325 325 324 326 329 330 330 330 330 330 330 329 329 327 324 323 322 322 322 322 321 321 321 320 320 320 320 321 322 322 322 322 322 320 318 317 319 321 321 321 319 317 318 320 319 319 319 320 321 321 320 317 315 314 313 313 313 313 313 313 315 316 315 316 316 316 318 318 320 320 316 314 313 313 312 311 309 308
322 323 324 323 323 324 324 324 324 324 325 328 329 329 329 327 326 326 325 325 326 326 324 322 322 322 321 321 321 320 320 320 320 321 321 322 322 322 321 320 319 317 318 318 318 319 319 318 316 316 317 317 317 316 317 318 318 318 316 315 315 315 314 314 313 312 312 314 316 315 315 316 315 316 316 317 317 316 315 314 313 312 311 309 308
322 323 323 322 322 324 324 323 324 324 324 325 326 327 326 325 325 325 324 322 323 325 325 323 322 322 321 321 321 320 320 320 320 321 322 322 321 321 320 319 317 317 316 315 314 315 316 315 314 315 315 315 316 315 315 315 315 315 314 315 316 316 315 315 314 313 313 314 315 315 315 315 315 315 315 315 315 315 315 315 314 313 312 310 308
322 323 323 323 323 324 324 323 323 324 324 324 324 325 324 324 325 326 325 323 323 324 324 323 322 321 320 321 321 320 321 321 321 321 321 320 320 320 319 318 316 315 313 313 312 312 313 313 313 314 314 313 313 314 314 314 314 313 312 314 316 316 315 315 314 315 315 315 315 315 315 315 314 314 314 314 315 315 315 315 314 313 312 310 309
316 316 317 319 320 321 321 322 322 323 323 324 324 324 324 323 323 324 324 323 323 324 324 323 322 322 321 321 321 321 321 321 320 320 320 320 319 318 318 317 315 313 313 313 313 312 311 312 313 313 313 312 311 312 312 313 313 313 312 313 315 316 315 314 315 316 316 315 315 315 315 314 314 314 314 314 314 314 315 315 314 313 311 310 310
309 309 309 310 310 311 313 316 319 322 323 323 323 323 323 323 322 323 323 323 323 323 324 324 323 323 323 322 321 320 321 321 320 319 319 319 319 317 316 316 314 313 314 314 312 312 312 312 313 312 312 312 311 312 312 312 312 313 312 314 315 316 316 315 315 316 315 315 315 315 314 314 314 314 314 314 314 314 314 315 315 314 313 313 313
304 304 305 304 304 305 306 308 312 317 319 321 321 322 322 323 323 323 323 323 323 323 324 324 323 322 323 321 320 321 320 319 318 318 318 318 318 316 315 314 314 314 315 314 313 313 312 311 312 312 312 312 312 312 312 311 312 313 313 314 315 316 316 316 315 315 315 315 315 315 314 314 314 314 314 314 314 314 314 315 315 314 314 314 314
302 302 302 302 302 303 304 304 306 308 312 316 319 321 321 322 322 322 323 323 323 323 323 323 322 320 320 320 319 320 318 316 316 317 317 316 316 316 315 314 314 313 314 315 316 315 313 312 312 312 312 313 313 313 313 312 313 314 314 314 315 315 315 316 315 314 315 315 315 314 314 313 313 313 313 314 314 313 314 314 314 314 314 314 314
301 301 301 301 301 301 302 302 303 304 306 311 316 320 321 321 321 321 321 322 322 322 321 321 321 320 320 320 320 319 317 316 317 317 317 316 314 313 314 314 314 314 316 318 318 316 314 314 313 312 312 313 314 314 313 312 312 313 314 313 314 315 315 315 315 314 314 314 313 313 312 312 312 312 312 312 313 314 314 314 314 314 314 314 314
301 301 300 300 301 301 301 301 301 302 304 306 310 314 315 315 316 317 319 321 322 322 322 321 321 321 320 320 320 320 319 319 319 318 319 318 316 315 316 317 317 318 319 320 320 317 315 314 314 313 313 313 314 314 314 313 312 313 313 314 314 314 314 314 314 314 313 313 313 312 312 313 313 313 314 313 314 314 315 315 315 314 314 314 314
301 301 300 300 300 301 302 301 301 301 302 303 304 306 306 307 307 308 311 314 316 316 316 316 316 318 320 320 321 321 321 320 320 320 320 320 320 320 321 321 322 322 321 321 320 318 316 315 314 314 313 313 314 314 315 315 314 313 313 313 313 313 313 313 313 313 313 314 313 313 313 314 314 315 316 316 316 316 316 316 316 316 315 314 314
302 301 300 300 301 301 301 301 301 301 301 302 302 303 303 303 303 303 304 306 306 306 306 306 308 310 312 314 316 317 317 318 318 319 319 320 320 321 322 322 322 323 323 322 322 321 320 319 318 317 316 315 314 314 315 315 315 315 314 314 314 314 314 314 313 313 314 315 314 313 313 314 315 315 316 316 316 317 317 317 317 317 316 316 315
302 302 301 301 301 301 301 301 302 302 301 302 301 301 301 301 302 302 302 302 302 302 302 302 302 303 304 305 307 308 308 309 310 312 313 314 314 315 316 317 318 319 321 321 321 321 321 321 321 321 320 319 318 317 316 316 315 315 315 315 315 315 315 315 315 314 314 315 315 315 314 315 316 316 316 316 317 317 317 317 317 317 316 316 316
302 302 301 301 301 301 301 301 302 302 302 302 301 301 301 301 301 301 301 301 301 300 300 301 301 301 301 301 302 302 302 303 303 304 306 306 307 308 309 309 310 312 313 314 315 316 316 318 319 320 321 321 321 320 320 319 318 318 317 316 316 316 316 316 316 316 315 315 315 315 315 316 316 317 317 317 317 317 317 317 317 317 316 316 316
301 301 301 301 301 301 301 301 302 302 302 302 302 302 301 301 300 301 300 300 300 300 300 300 300 300 300 300 300 301 301 301 301 301 302 302 303 304 304 304 305 306 307 308 309 310 311 312 313 315 317 319 320 320 320 321 321 321 320 320 318 317 316 316 316 316 316 316 316 316 317 316 317 318 318 318 318 318 317 317 316 316 316 316 316
299 300 300 300 300 300 302 303 302 302 302 302 302 302 302 301 300 300 300 300 300 300 300 299 299 299 299 299 299 299 300 300 300 300 300 300 301 301 302 302 303 304 304 304 305 304 305 306 307 309 311 314 316 317 317 319 320 320 320 321 320 320 320 318 317 316 315 315 316 317 318 318 318 319 319 319 319 318 317 316 315 316 316 316 315
299 300 300 300 300 300 301 302 302 302 302 302 302 302 301 300 300 300 300 300 300 300 299 299 299 299 299 299 299 299 299 299 299 299 299 299 299 300 300 300 300 301 301 301 302 302 302 303 304 305 306 308 310 311 312 313 316 317 318 319 320 320 320 320 320 319 318 317 316 317 318 319 319 319 319 319 319 318 318 317 316 316 315 315 315
300 300 300 300 300 300 301 301 301 301 301 301 301 301 301 300 300 300 299 299 299 299 299 299 299 299 299 299 299 299 299 299 299 299 299 299 299 299 299 299 299 299 300 300 300 300 301 301 302 302 302 303 305 306 306 308 309 311 314 316 318 318 319 320 320 320 320 319 318 318 319 320 320 319 318 318 318 318 318 317 316 316 315 315 316
301 300 300 300 300 300 301 301 301 301 301 300 300 300 300 300 300 300 299 299 299 299 299 299 299 299 299 299 299 299 299 299 299 299 299 299 299 299 299 299 299 299 299 299 299 299 300 300 300 301 301 301 302 303 303 304 305 306 307 309 312 314 315 317 318 319 319 319 319 319 319 319 320 319 319 319 318 318 317 315 315 315 315 316 315
301 301 300 300 300 300 301 301 301 301 300 300 300 299 299 299 299 299 299 298 298 299 299 298 298 298 298 298 298 298 298 298 298 298 298 299 299 299 299 298 299 299 299 299 299 299 299 299 299 299 300 300 300 300 301 302 302 303 303 304 306 308 310 313 315 316 317 318 318 319 318 318 319 319 319 319 318 318 318 315 313 314 314 314 314
300 300 300 300 300 300 301 300 300 300 300 300 299 299 299 299 298 298 298 298 298 298 298 298 298 297 297 297 297 298 298 298 298 298 298 298 298 298 298 298 298 298 298 298 298 298 298 298 298 298 299 299 299 299 300 300 301 301 301 302 302 304 306 309 311 313 315 317 318 318 317 316 317 318 318 318 318 318 318 315 312 312 313 313 313
299 300 300 301 300 300 300 300 300 300 299 299 299 299 298 298 298 298 298 298 298 298 297 298 297 297 297 297 297 297 297 297 297 297 297 297 297 297 298 297 298 298 297 298 298 298 297 298 298 298 298 298 298 298 298 299 299 300 300 301 301 302 303 306 308 310 312 314 316 317 317 316 316 317 317 317 317 317 317 315 313 312 313 313 312
299 300 300 300 300 300 300 300 299 299 299 299 299 298 298 298 298 298 298 298 298 298 297 297 297 297 296 297 296 297 297 297 297 297 297 297 297 296 296 296 296 296 296 296 296 296 296 297 297 297 297 297 297 298 298 298 298 298 299 300 300 301 302 304 306 307 308 310 312 313 315 316 316 316 316 316 316 315 316 316 314 313 313 313 311
299 300 300 300 300 300 299 299 299 299 299 299 299 298 298 298 298 298 298 298 297 297 297 296 296 296 296 296 296 296 296 296 296 296 296 296 296 295 295 295 295 296 296 296 296 296 295 296 295 295 296 296 296 297 297 297 297 297 298 298 299 300 301 303 304 305 306 307 309 311 313 314 314 314 315 315 315 314 314 314 314 313 312 312 311
299 300 299 299 299 299 299 299 298 298 298 298 298 298 298 298 298 298 298 298 297 297 296 296 296 296 296 296 295 295 295 295 295 295 295 295 295 295 295 296 295 296 296 296 296 296 295 295 295 295 295 295 295 295 296 296 297 297 297 297 298 299 300 302 303 304 304 305 307 310 312 313 313 313 314 315 314 314 314 313 312 311 310 310 311
298 299 299 299 299 298 298 298 298 298 298 298 298 298 298 298 298 298 298 297 297 297 297 297 297 297 296 296 295 295 295 295 295 296 295 296 296 295 296 296 296 296 296 295 295 295 295 295 295 295 295 295 294 294 295 295 296 296 296 296 297 298 300 301 302 303 303 304 305 308 311 312 311 311 311 313 313 313 313 312 311 309 309 310 310
297 298 298 299 299 298 298 298 298 298 298 298 298 298 298 298 298 298 297 297 297 297 297 297 297 297 297 296 295 295 295 296 296 296 296 296 295 295 295 295 295 295 295 295 295 295 295 295 295 295 295 294 294 294 294 295 295 296 296 296 297 297 299 301 302 302 303 303 304 305 308 309 310 309 309 310 310 310 310 310 309 308 309 309 307
297 298 298 298 298 299 298 298 298 298 297 297 297 298 298 298 298 298 297 297 297 297 297 297 297 297 296 295 295 295 296 296 296 296 295 295 294 294 294 294 294 294 294 295 295 295 295 295 295 294 294 294 293 293 294 294 295 295 296 297 297 297 298 300 302 302 302 302 302 303 304 305 306 307 307 308 308 308 307 307 307 307 308 306 303
297 298 298 298 298 298 298 298 298 297 297 297 297 298 298 298 298 298 297 297 297 297 297 297 297 296 295 295 295 296 296 297 296 295 294 293 293 292 292 293 293 293 293 294 294 294 294 294 294 294 294 294 293 293 293 294 295 295 296 297 297 298 299 300 301 302 302 301 301 302 302 302 302 302 301 301 303 304 304 304 304 304 304 303 302
298 298 298 298 298 298 298 298 297 297 297 297 297 298 298 298 298 298 297 297 297 297 297 297 297 296 296 296 296 296 296 296 295 294 293 293 292 292 292 292 293 293 293 293 293 293 294 294 294 294 293 293 293 293 294 294 294 295 296 297 298 299 300 301 301 301 301 301 301 301 301 301 300 298 297 296 297 298 299 300 301 301 301 302 302
Wind_Speed
6 11 14 14 15 16 16 17 18 18 19 22 23 24 25 25 24 22 23 26 26 26 25 24 23 23 23 21 21 19 17 15 13 11 10 9 9 9 9 8 9 9 9 10 10 9 9 9 8 8 8 8 9 9 10 11 11 12 15 17 18 19 19 19 21 24 24 19 14 11 9 7 6 5 5 5 4 4 5 6 5 6 6 6 6
7 9 11 13 15 16 17 18 19 19 20 21 23 24 24 24 23 20 22 25 27 27 25 25 25 25 24 22 20 18 15 13 11 10 9 8 9 8 8 8 9 9 9 9 9 9 9 9 9 9 9 9 10 10 11 11 12 14 17 18 19 20 20 20 21 18 17 17 15 10 8 7 7 6 5 5 4 5 6 6 5 5 5 5 4
9 10 10 13 16 16 17 18 20 21 20 20 22 23 23 23 22 21 24 26 26 27 26 26 26 24 22 20 18 15 13 11 9 9 9 9 9 9 9 9 10 9 9 9 8 8 9 10 10 10 10 11 12 12 12 13 14 15 18 20 20 20 19 20 17 11 14 18 15 8 3 3 5 6 6 5 5 6 7 7 6 6 6 5 5
12 11 9 11 15 17 17 19 21 21 20 20 21 22 23 23 23 24 27 27 27 27 27 26 24 21 18 17 15 13 12 11 9 10 10 10 10 10 9 9 9 9 9 8 7 8 9 10 10 10 11 12 13 14 13 14 15 16 18 19 21 20 18 16 11 11 18 17 9 4 2 3 2 2 6 7 5 7 7 7 8 8 8 7 6
14 14 12 11 14 16 18 21 21 21 21 22 22 22 23 24 25 26 28 28 27 27 26 25 23 21 17 16 14 12 12 12 11 11 11 11 11 10 9 8 8 8 8 7 7 8 9 10 9 10 12 13 13 13 12 13 15 16 17 17 18 18 18 15 10 12 17 13 7 6 3 2 2 3 5 6 4 7 7 7 9 9 8 8 8
13 14 13 11 13 16 18 20 20 21 22 23 23 23 24 26 26 26 27 27 27 27 25 24 23 21 20 19 17 15 14 14 14 14 13 12 10 9 8 7 7 7 7 7 7 7 8 9 10 10 12 12 12 11 12 13 13 15 15 15 15 15 17 17 13 13 14 9 8 7 3 4 8 6 4 3 4 6 6 7 9 9 9 9 10
10 10 9 10 13 15 16 20 20 20 22 23 22 22 24 26 26 26 26 26 27 26 24 23 22 21 21 22 20 20 19 18 16 15 13 12 11 10 10 8 7 7 7 7 6 6 7 8 9 10 11 11 11 10 11 12 13 13 14 14 14 13 15 16 15 15 14 9 7 6 3 9 17 12 6 4 3 3 5 9 10 8 9 11 11
10 9 9 10 13 14 16 20 21 19 21 23 23 23 25 26 25 25 25 26 26 24 22 22 22 22 23 22 21 21 21 19 17 16 14 14 13 12 11 11 10 9 9 8 7 7 6 6 7 8 9 10 10 10 11 12 12 12 13 12 12 13 13 15 16 17 15 11 8 6 5 13 19 14 13 12 5 2 4 8 10 10 11 12 12
10 8 8 9 12 16 19 19 19 19 21 23 24 25 25 25 24 24 24 25 24 23 22 22 23 24 24 23 22 22 20 19 19 17 17 16 15 14 13 13 12 11 10 9 8 7 7 6 6 7 7 9 10 10 10 11 11 11 12 11 11 12 12 13 15 17 17 14 10 8 11 15 15 12 14 15 8 5 4 3 9 12 11 11 11
8 7 7 9 13 17 18 18 18 18 21 23 24 25 25 25 24 24 23 24 23 23 23 23 24 25 25 24 24 22 21 21 20 19 18 17 15 15 14 13 12 11 10 9 9 8 7 6 5 6 7 7 9 10 11 11 10 10 10 10 10 10 11 12 13 15 16 14 12 11 15 17 14 10 12 13 10 7 4 5 10 12 9 8 8
9 8 8 10 14 17 16 17 18 18 20 23 23 24 24 24 25 25 24 24 23 23 24 25 26 28 27 26 24 23 23 23 22 21 20 18 16 14 13 12 11 11 11 9 8 7 6 4 3 5 7 7 8 9 10 10 9 9 9 9 9 9 10 11 11 13 15 15 13 12 15 19 17 14 15 16 13 9 7 6 8 11 10 9 8
9 9 8 9 11 14 16 17 19 20 21 22 24 24 24 25 25 25 24 24 24 23 25 26 28 29 28 26 25 24 23 23 24 23 22 19 17 15 13 13 12 12 11 9 7 6 4 4 2 4 8 8 8 9 9 10 10 10 10 9 9 8 9 11 10 11 14 16 15 12 14 18 19 19 21 20 16 16 15 10 9 12 9 7 10
10 9 9 9 9 12 15 17 19 21 22 23 24 25 25 25 26 27 27 25 25 24 24 26 27 27 27 26 26 24 23 23 23 23 22 20 19 17 15 14 13 13 11 9 7 6 5 5 3 5 9 9 7 7 8 9 10 11 10 9 10 10 10 10 10 10 12 14 15 14 13 15 16 18 22 20 18 21 21 14 10 11 9 8 10
10 9 10 9 9 12 16 17 19 21 22 23 23 25 26 26 28 30 29 27 26 24 23 24 26 26 26 26 25 24 23 21 20 21 22 20 19 17 15 14 13 12 10 9 8 7 6 6 5 7 9 8 6 6 6 7 9 9 9 9 10 10 9 9 9 8 10 12 13 13 14 14 13 17 21 21 20 22 23 19 13 8 10 12 8
9 9 11 10 10 13 15 16 18 20 21 22 23 25 27 28 30 32 30 27 25 24 23 25 27 27 27 25 24 23 21 18 18 19 19 19 17 16 14 12 10 9 9 9 9 9 8 7 7 7 8 8 7 6 6 7 8 9 9 9 10 9 9 9 8 8 9 11 13 13 14 14 13 16 20 19 20 24 24 24 20 11 6 6 4
10 10 10 10 12 15 15 16 18 19 21 23 24 26 28 29 30 31 30 27 25 25 24 25 28 28 27 25 23 21 19 17 17 16 16 15 14 14 12 11 9 8 9 10 10 9 8 7 7 7 7 8 7 7 7 8 9 9 10 9 9 10 9 9 8 8 9 10 12 12 14 15 14 15 17 16 18 25 26 25 26 19 11 4 1
10 10 10 10 12 14 15 16 18 20 22 23 25 28 29 30 29 28 28 26 27 26 24 27 30 29 27 24 21 19 17 16 16 15 14 13 12 12 11 11 10 9 10 10 10 9 7 6 6 6 6 7 8 8 8 9 10 10 10 9 9 9 9 9 8 8 10 10 11 12 12 15 16 16 16 14 18 25 27 25 24 22 18 10 3
9 9 7 8 11 14 15 16 18 22 23 24 25 27 28 29 28 27 27 27 27 25 25 29 31 29 26 23 19 17 16 15 14 14 13 12 11 11 11 11 11 11 11 10 10 9 6 6 7 6 6 8 9 9 8 9 10 10 10 9 9 8 8 8 9 10 11 11 11 12 12 15 18 19 18 16 19 24 26 25 22 20 19 16 10
6 5 4 5 9 13 15 17 18 20 21 22 23 24 23 24 24 25 27 27 26 27 29 31 30 27 24 21 18 16 15 15 14 13 12 11 11 12 11 11 11 11 11 10 10 9 7 7 8 8 8 8 9 8 8 9 10 10 10 10 9 9 9 11 12 13 14 13 11 11 11 14 17 19 20 19 21 23 24 24 23 20 19 18 17
2 2 2 2 7 12 15 17 18 17 18 20 22 22 21 22 22 22 24 25 26 29 30 30 29 27 24 21 18 16 15 14 14 13 11 10 11 12 11 11 11 10 10 10 9 9 8 8 9 10 10 10 9 9 9 9 10 11 11 10 10 11 12 14 15 15 15 14 13 11 9 11 13 17 21 23 23 23 24 24 22 22 21 17 17
4 5 4 4 7 12 13 13 15 17 16 15 17 19 20 21 21 21 22 23 24 27 29 29 28 26 23 21 18 16 15 14 14 12 11 10 11 12 11 10 9 8 8 8 9 9 8 8 9 10 11 11 10 10 10 10 11 11 10 10 10 12 13 14 15 14 14 14 15 14 11 10 12 16 21 24 24 23 23 24 22 22 23 19 17
5 6 6 6 7 11 14 16 20 22 20 17 16 17 19 18 17 18 19 18 19 22 24 25 26 24 22 20 18 17 15 14 13 12 11 11 11 12 11 8 7 7 7 7 8 8 8 7 8 10 10 10 9 9 10 10 10 10 10 10 10 11 13 13 13 12 12 14 16 16 15 14 13 15 18 19 21 21 21 23 24 24 25 21 18
4 6 6 6 6 7 12 19 20 20 23 22 18 18 16 11 8 7 6 6 8 15 21 23 22 22 21 20 18 17 15 14 13 12 11 12 12 11 10 7 6 7 7 7 6 7 7 7 8 9 9 9 8 8 9 10 11 10 11 11 11 12 13 12 11 11 12 13 15 17 18 17 16 16 16 16 16 16 16 19 23 26 27 24 20
6 7 6 6 7 7 9 15 17 15 16 17 15 15 14 12 10 10 7 4 4 7 16 21 20 16 16 18 18 17 16 14 13 13 13 12 12 11 9 7 7 7 7 6 5 6 7 7 8 9 9 8 8 8 9 11 11 10 10 12 12 12 12 11 10 11 13 14 15 16 16 16 16 16 16 15 14 13 13 14 17 22 25 25 22
8 8 7 7 8 8 8 11 15 14 13 12 13 12 12 15 18 18 17 13 9 9 12 15 16 14 11 13 15 16 16 15 14 14 12 12 12 11 10 9 9 9 8 7 5 5 7 8 8 8 8 7 8 8 10 11 11 10 11 12 12 12 11 11 11 11 12 13 14 14 14 14 14 14 14 14 13 12 11 11 13 16 20 22 21
9 9 8 8 8 9 9 10 11 12 13 12 12 12 12 14 14 14 15 15 15 18 18 15 15 14 10 10 12 13 15 16 15 13 11 12 12 11 10 10 11 11 9 8 7 6 6 8 9 8 8 8 8 8 9 10 10 10 11 12 13 12 12 12 12 11 11 12 12 13 13 12 12 12 12 12 12 12 11 11 12 13 16 19 19
9 10 10 10 10 10 12 13 12 12 13 13 11 11 12 13 12 12 13 14 16 21 23 20 20 18 15 15 16 15 14 14 13 11 11 12 12 11 11 12 13 12 10 10 10 9 8 8 8 9 9 9 8 8 8 9 9 9 10 13 14 14 12 12 13 12 11 11 11 12 12 11 11 11 12 12 12 12 13 13 13 14 15 17 17
11 11 11 11 11 10 13 16 17 17 16 15 12 11 12 14 15 14 14 15 18 22 23 22 21 19 17 17 17 15 13 11 10 10 11 11 11 12 12 12 13 12 10 9 9 10 10 9 8 9 10 10 8 8 8 8 8 9 11 13 14 14 14 13 14 14 13 13 13 13 12 12 12 11 11 12 12 12 13 15 16 15 15 16 17
13 12 11 12 11 10 13 17 20 21 20 18 17 15 16 16 16 16 15 15 16 19 20 17 16 16 15 15 15 13 11 10 12 12 11 10 10 11 11 11 12 12 10 8 8 10 12 12 11 11 12 11 9 9 9 10 10 10 12 14 15 14 15 15 15 15 15 15 15 15 14 14 14 14 13 13 13 12 13 15 17 17 17 17 18
13 12 12 11 11 11 14 17 22 24 22 19 17 18 19 19 17 17 17 16 15 16 15 14 16 16 14 13 12 11 10 10 11 11 10 9 9 9 10 10 10 10 9 7 7 10 11 11 12 13 14 13 12 10 10 11 12 12 12 14 16 16 16 16 17 16 16 17 16 16 16 15 15 15 16 16 15 14 14 14 16 17 18 19 20
11 10 11 11 11 13 15 17 22 25 22 19 18 19 20 20 19 21 21 20 19 18 16 17 18 17 14 13 12 10 9 8 8 9 10 9 7 6 6 7 7 8 7 6 7 10 12 12 12 14 15 15 14 13 12 12 13 14 14 14 16 17 18 18 18 18 18 19 19 18 17 16 16 15 15 16 16 16 15 14 14 15 17 18 20
10 8 10 11 11 12 14 18 24 27 26 22 21 23 23 22 23 26 27 27 25 24 22 22 21 20 17 15 13 11 11 10 10 10 10 8 7 7 7 6 5 3 2 2 2 6 9 10 12 14 16 17 17 16 15 14 14 15 16 17 18 19 20 20 20 20 20 20 21 22 20 18 18 17 17 17 17 17 17 16 15 15 16 17 18
9 8 10 10 10 14 19 22 25 27 27 25 24 26 25 24 26 30 32 32 32 31 30 29 27 26 24 21 18 16 14 13 13 12 11 10 9 9 9 7 6 5 4 3 2 1 2 4 6 9 12 15 18 19 19 19 18 17 18 19 20 21 21 22 23 23 22 22 22 23 23 22 21 20 20 20 20 20 20 19 18 18 18 18 19
8 8 9 9 13 19 23 25 26 26 26 26 27 28 27 26 30 33 33 33 34 34 33 32 31 30 29 28 25 23 22 20 18 16 15 14 12 11 11 9 7 6 5 4 4 3 1 0 2 3 5 8 10 14 16 18 20 21 21 22 23 23 23 24 25 26 26 26 25 26 26 26 25 24 24 24 24 25 24 23 22 22 21 21 20
7 7 9 11 16 20 21 23 25 26 27 28 28 29 29 29 31 32 32 32 34 34 34 32 31 31 30 29 27 26 25 23 21 19 18 17 16 15 14 12 9 8 7 6 5 5 4 3 2 3 5 5 6 7 10 12 15 17 19 22 24 26 27 27 27 28 29 29 29 29 29 29 28 27 27 27 27 28 27 26 24 23 22 21 21
8 10 11 13 17 20 20 21 22 25 27 27 26 28 30 31 32 32 31 31 33 33 33 32 31 30 28 27 26 25 24 23 23 22 21 20 17 16 14 12 10 9 8 6 6 5 5 4 4 4 5 5 5 5 8 9 11 13 14 17 19 22 25 28 30 31 31 31 32 32 32 31 31 30 29 29 29 29 27 25 23 23 23 23 23
12 15 15 15 18 21 22 21 22 24 24 23 22 24 26 29 30 30 31 32 32 31 31 31 30 29 27 25 23 23 23 22 21 22 24 23 20 17 15 13 11 10 9 8 7 7 7 7 6 6 6 6 6 6 7 9 10 12 14 15 16 18 20 23 26 29 30 32 32 32 32 32 31 31 31 30 31 29 27 24 24 25 27 28 27
15 17 18 18 20 21 22 22 23 23 21 20 19 19 22 26 27 27 30 31 31 29 29 29 28 27 26 25 22 21 21 21 20 21 22 21 20 19 17 15 13 12 12 11 10 9 9 9 8 8 8 8 8 8 8 9 10 11 12 14 16 18 19 21 22 24 25 28 30 30 30 31 32 31 30 30 30 30 29 28 27 26 28 29 28
16 17 17 18 19 20 21 22 22 21 20 20 21 21 24 25 24 25 26 27 25 23 23 23 23 22 22 22 22 20 20 20 19 18 18 18 18 18 17 15 14 13 12 12 11 11 10 10 10 9 10 10 11 10 10 11 11 12 13 13 14 17 19 21 22 23 23 25 27 28 29 30 31 30 28 29 30 32 32 31 29 28 28 28 27
16 16 16 17 18 20 21 21 21 20 19 21 23 25 26 25 25 26 26 24 22 19 19 19 18 18 18 18 18 18 17 17 16 15 15 14 15 15 15 14 13 12 11 10 11 11 11 11 11 11 11 11 12 12 12 12 12 12 13 14 15 16 18 21 23 25 25 25 26 28 29 30 31 30 29 29 31 32 33 31 29 29 29 29 26
15 15 16 19 20 20 21 21 20 19 20 21 24 27 27 27 27 27 25 23 21 20 20 19 19 19 18 17 16 16 15 14 13 12 12 11 12 12 12 12 12 11 10 10 10 11 11 11 12 12 12 12 13 13 14 14 14 14 14 15 17 17 17 20 23 26 28 28 28 28 29 29 31 32 32 32 31 32 33 31 29 30 31 29 23
16 16 17 19 20 20 20 20 19 19 20 21 25 28 27 26 26 24 22 20 20 19 19 19 19 19 18 17 16 15 13 12 12 11 10 10 10 10 10 11 11 10 10 10 11 11 12 12 12 13 13 13 14 15 15 15 15 16 16 16 18 19 18 19 22 25 28 30 31 31 30 30 30 32 32 33 32 31 31 31 29 28 28 26 21
18 16 16 18 19 19 19 19 19 20 20 21 25 27 26 24 23 21 19 18 18 18 18 18 18 18 17 16 15 14 12 12 12 11 11 11 10 10 10 10 11 11 11 11 12 13 14 15 15 15 15 15 16 16 17 17 17 17 17 17 18 19 18 18 20 23 27 29 31 32 33 32 33 32 31 31 32 31 30 29 27 25 25 24 22
18 16 15 16 17 17 18 19 19 20 20 20 22 24 24 22 19 17 17 17 17 17 18 18 17 16 16 15 14 13 12 11 12 12 12 12 12 12 12 12 12 13 13 14 14 15 16 17 18 19 19 19 19 19 19 19 19 19 19 19 19 19 19 19 20 21 24 26 29 31 32 33 35 34 30 29 30 31 30 29 28 26 25 25 24
18 16 15 15 17 17 18 20 20 20 20 19 19 21 21 19 16 15 16 17 17 17 18 18 18 17 16 14 13 12 12 11 12 12 12 12 13 13 13 13 13 14 14 15 15 16 17 18 19 21 23 23 23 23 22 21 21 21 21 21 20 20 19 19 20 21 21 22 24 27 29 31 33 32 29 27 28 29 30 30 29 28 27 27 26
18 16 15 15 17 18 19 20 20 19 19 18 18 18 17 16 14 15 16 16 17 18 19 18 18 17 16 16 15 14 13 13 12 12 12 13 13 14 14 14 15 16 16 17 16 17 18 19 21 23 24 26 26 26 26 25 24 24 24 23 22 21 20 20 21 22 21 21 21 22 24 27 30 30 28 28 28 28 28 29 28 27 27 28 27
16 15 14 14 16 18 19 19 18 16 16 17 16 16 14 13 13 14 16 16 18 18 18 18 18 16 15 16 17 17 15 14 14 14 14 14 15 15 16 16 17 18 19 19 18 18 19 20 22 24 25 26 26 26 26 25 24 24 25 25 25 24 23 22 23 23 24 24 22 20 21 23 26 27 27 28 28 27 27 27 26 24 26 29 30
13 12 12 13 14 16 17 16 15 14 13 14 15 15 13 11 12 14 15 16 17 17 17 18 17 15 15 16 17 17 16 16 16 16 16 16 17 17 17 17 17 17 19 19 19 19 19 20 22 23 24 25 25 24 24 23 21 22 24 26 27 27 26 26 25 25 26 26 24 21 20 21 23 23 23 24 26 26 26 26 25 25 27 29 31
11 10 11 12 13 13 14 14 13 12 11 10 12 14 13 10 10 12 14 16 17 17 17 16 15 15 15 15 16 16 16 17 18 18 17 17 17 18 18 18 17 16 16 17 18 19 19 20 20 21 22 24 25 25 23 21 19 20 22 23 26 28 28 27 25 25 25 24 22 20 19 18 18 19 21 23 25 25 24 23 24 27 29 31 33
11 10 11 11 12 12 12 12 10 10 10 9 9 11 12 10 9 10 12 14 15 16 17 16 15 15 15 15 15 16 16 17 17 17 18 19 19 18 17 17 17 16 14 14 16 17 18 19 20 21 21 22 24 25 23 21 21 21 21 22 24 27 27 25 24 23 22 20 18 17 16 15 15 17 19 21 23 24 25 26 27 29 32 34 35
11 11 11 10 9 8 8 8 7 7 8 8 8 10 11 8 6 7 10 12 15 17 18 17 16 16 16 16 16 17 17 18 17 17 19 21 22 22 20 17 16 15 14 13 14 16 16 17 18 20 21 22 23 23 22 21 22 22 21 22 25 26 24 22 22 21 18 16 16 15 15 15 15 16 16 16 17 17 20 26 30 32 33 35 35
Wind_Direction
145 167 187 180 167 166 168 167 165 166 168 168 164 165 167 168 168 168 175 180 178 176 179 179 178 178 181 186 190 191 192 194 196 196 196 199 195 197 203 209 214 213 215 216 211 209 209 205 200 201 197 191 191 185 175 173 172 168 163 159 153 144 140 142 144 134 120 115 116 112 109 105 93 91 105 122 124 130 138 137 142 156 176 190 205
146 173 192 177 166 166 166 165 165 166 168 167 164 165 167 167 164 163 171 177 177 176 176 178 179 179 181 184 185 185 186 187 188 189 196 202 199 202 204 206 213 215 213 214 213 211 211 208 204 203 196 190 191 186 179 172 171 171 163 156 153 147 142 143 144 137 122 121 121 105 90 90 82 81 104 133 125 118 131 128 121 132 152 169 180
165 180 190 175 166 164 165 167 170 170 168 166 165 165 166 167 167 168 171 173 173 174 174 177 181 181 180 178 175 177 179 181 185 189 196 201 199 202 206 207 208 207 206 207 208 205 209 210 204 199 191 185 185 181 176 169 167 172 167 159 153 148 146 147 147 145 134 129 123 110 96 87 64 59 80 107 119 115 123 120 103 105 116 128 139
170 181 185 170 165 166 167 171 174 172 167 166 166 165 165 168 170 171 172 171 172 175 176 178 179 178 175 172 172 176 176 181 190 191 190 193 194 195 198 201 199 197 196 196 198 199 203 205 198 192 185 181 182 178 173 169 169 171 170 167 160 152 151 155 155 152 147 138 121 101 115 112 83 63 71 73 106 122 118 114 102 98 103 108 119
169 180 182 165 165 170 171 175 176 172 167 167 167 165 165 167 169 170 172 174 176 177 178 178 175 174 174 174 176 178 177 183 188 185 184 184 184 183 183 186 187 189 188 183 187 193 194 195 193 187 182 180 181 180 175 173 174 174 175 174 168 161 161 162 160 157 157 152 137 125 114 119 200 169 102 69 90 126 126 118 104 94 99 109 117
175 180 176 163 166 171 172 176 177 173 168 167 168 166 165 167 168 170 173 175 176 176 176 177 175 176 177 175 175 173 173 181 184 178 176 174 170 168 166 168 173 174 172 169 175 182 182 186 189 186 183 181 182 184 184 181 179 180 180 181 179 173 170 167 164 165 166 158 147 143 125 161 167 150 116 61 76 118 126 118 105 96 104 115 117
178 178 169 161 167 171 173 176 177 174 167 164 166 165 167 170 172 174 175 174 175 176 177 179 179 180 179 177 176 174 172 176 178 170 166 162 157 154 154 155 159 158 155 154 161 169 168 173 182 185 187 185 183 186 189 190 187 185 186 188 189 187 182 176 172 171 170 163 159 156 119 156 161 153 146 142 102 111 116 107 107 106 112 118 116
176 175 170 169 172 174 175 175 175 173 165 162 164 167 170 173 176 178 176 176 177 178 180 182 181 179 178 178 176 173 170 168 167 163 160 156 150 146 144 144 144 144 144 143 144 149 149 155 165 176 184 186 185 186 188 193 193 188 187 191 196 201 202 194 183 178 175 169 162 152 132 157 165 164 158 148 125 110 110 99 108 121 129 129 123
175 169 167 170 174 179 177 170 168 169 166 163 165 168 172 174 175 176 177 178 180 181 183 185 183 179 178 178 173 169 164 160 160 159 157 155 149 143 139 137 136 134 133 131 132 136 140 146 152 162 174 181 184 185 185 191 193 189 185 188 196 204 212 210 198 189 185 179 170 148 136 149 158 159 153 143 127 134 148 119 122 128 131 132 132
171 164 162 167 177 182 174 160 158 166 169 168 168 170 172 173 174 174 175 178 181 184 185 186 186 184 182 179 172 167 164 161 161 159 157 157 152 147 144 141 139 136 132 130 130 133 136 141 150 160 166 177 186 186 184 187 191 191 189 192 200 207 211 213 209 204 198 191 184 161 143 144 144 146 151 145 132 126 136 141 139 139 135 130 139
168 165 158 162 176 180 166 152 155 165 171 172 170 170 171 172 173 174 175 178 180 183 183 183 185 185 183 180 173 169 168 167 165 163 163 163 159 157 155 153 151 148 142 138 137 137 136 136 147 164 166 168 177 182 184 186 186 185 189 196 204 212 212 209 207 210 209 201 193 179 163 161 160 163 167 159 146 134 130 126 133 141 134 130 145
165 164 159 158 170 175 164 154 156 165 172 173 171 172 171 171 172 172 174 177 177 178 179 177 178 181 182 182 176 172 172 172 170 168 167 166 164 160 157 156 158 157 152 150 153 157 160 160 170 178 171 166 165 169 175 180 180 179 185 192 195 199 201 200 197 202 208 204 196 192 183 176 173 172 172 169 165 156 145 127 127 137 124 120 144
166 166 168 165 170 175 168 160 159 167 173 173 171 171 169 170 171 171 172 175 175 175 176 175 175 179 182 182 178 174 175 175 173 172 170 167 161 156 153 153 156 157 157 158 161 168 178 179 190 183 176 173 166 163 168 177 184 186 187 188 187 187 189 193 196 197 204 205 199 196 192 185 179 175 174 174 171 160 145 129 132 141 131 129 144
168 168 175 178 176 174 173 167 164 170 174 172 169 168 167 169 171 171 173 176 175 174 176 175 175 177 178 177 176 175 177 178 175 173 170 165 160 156 153 153 155 159 162 162 160 163 168 169 169 169 172 176 174 178 186 187 191 193 192 187 182 184 187 190 199 202 201 204 202 200 198 192 183 178 178 175 170 163 150 136 127 119 125 136 144
169 176 182 184 174 168 170 171 168 170 172 170 167 167 167 170 173 174 175 176 175 173 172 173 174 174 174 175 176 178 179 178 173 170 168 166 164 160 158 158 160 163 164 161 159 160 159 161 167 169 171 179 188 196 199 193 193 193 191 187 180 181 188 190 199 206 200 199 200 200 199 194 183 179 184 184 178 173 164 151 142 124 113 132 136
174 182 187 181 169 165 168 171 169 167 169 170 170 170 170 172 175 176 174 174 175 173 172 176 176 175 175 177 178 179 179 176 171 169 170 170 169 166 164 165 164 161 160 159 158 158 157 165 177 181 181 186 191 190 186 187 191 189 186 187 185 186 191 191 193 192 187 188 191 195 200 195 186 181 187 194 189 180 173 166 159 151 145 141 96
178 184 186 176 166 165 167 168 165 164 169 172 173 174 175 176 176 173 172 173 174 175 178 181 180 177 177 177 176 178 179 177 174 173 173 173 174 173 170 168 166 163 162 162 163 161 161 176 184 180 180 181 179 178 177 180 186 186 186 190 190 188 187 183 179 173 171 176 181 188 195 193 190 189 190 197 192 182 176 175 174 168 160 152 128
182 187 181 172 166 164 161 163 167 168 171 173 175 178 179 179 176 172 172 173 174 177 179 180 179 176 175 173 172 173 171 171 174 176 176 177 178 177 174 170 166 165 166 168 171 169 172 188 185 170 167 171 174 177 176 179 182 180 180 183 180 178 176 170 167 163 160 163 171 179 186 189 194 197 196 194 188 183 181 180 183 183 174 167 162
173 181 174 170 162 158 153 155 164 167 167 171 176 180 180 179 178 175 173 173 174 177 177 176 175 173 170 169 167 167 166 169 175 177 181 184 182 180 177 173 167 166 170 173 173 171 173 180 176 167 163 165 170 174 174 173 171 168 169 168 164 163 158 150 150 151 149 150 156 165 180 190 195 200 199 193 189 188 188 187 189 192 188 184 178
120 116 106 120 140 147 149 151 155 154 156 166 174 180 180 179 180 177 175 174 174 176 174 171 170 167 165 166 166 167 169 174 178 181 184 184 182 183 182 177 173 172 176 178 175 171 169 165 164 167 166 163 164 165 165 165 162 161 162 159 156 157 151 144 143 142 142 146 147 146 162 180 186 194 194 188 189 195 194 193 199 201 197 196 189
71 83 79 84 113 127 133 132 126 122 131 153 168 177 181 181 182 180 177 175 172 171 169 167 165 164 163 164 167 170 172 174 178 182 182 179 178 182 183 182 182 184 186 183 178 174 172 164 161 167 170 169 170 169 168 169 166 166 166 163 161 160 156 151 149 143 139 144 145 138 137 150 167 182 187 185 188 194 195 198 204 206 204 202 195
68 83 83 74 80 101 113 110 109 119 139 157 167 174 179 179 181 181 177 172 166 162 161 159 159 161 162 165 168 172 174 175 178 181 179 175 176 180 184 189 190 188 185 181 180 181 184 182 171 169 173 175 179 182 182 183 180 177 178 177 174 171 166 161 159 156 149 145 143 140 135 134 144 161 173 181 188 193 198 204 206 207 207 207 202
64 79 87 83 71 87 107 108 113 136 159 166 165 166 166 156 158 172 160 137 140 152 155 155 157 161 164 167 170 174 177 179 179 177 175 173 176 181 186 194 191 183 183 185 191 192 194 196 185 178 180 182 184 186 187 190 187 184 183 180 179 178 173 170 171 171 167 158 149 144 142 144 146 149 157 167 179 187 196 206 209 209 211 210 207
59 66 82 101 100 100 108 110 114 128 149 159 158 155 154 155 171 188 172 110 77 133 151 153 149 143 148 157 164 170 176 179 175 172 172 174 177 181 186 190 188 184 185 186 190 193 193 194 187 180 182 187 192 194 193 193 190 189 188 182 178 179 179 181 181 175 173 171 163 155 152 155 158 158 160 166 172 178 185 196 203 208 212 211 206
55 56 63 78 85 87 97 109 116 120 130 147 153 153 161 175 186 190 177 160 151 151 148 144 136 122 117 136 151 161 167 171 169 167 171 176 178 182 186 188 185 180 180 178 175 183 190 194 194 188 187 194 201 203 202 199 197 198 198 189 183 183 187 189 185 177 173 174 174 170 167 169 173 171 169 172 178 180 183 189 194 200 206 206 203
59 55 54 58 59 60 62 72 95 113 122 134 149 159 164 170 179 183 169 154 157 165 163 160 158 154 145 148 160 166 163 163 165 165 173 179 180 185 190 190 186 184 188 192 188 187 189 195 201 204 203 207 208 206 207 206 204 206 204 196 192 191 192 192 188 183 180 180 181 182 181 183 191 192 187 186 189 191 193 193 191 191 195 199 202
61 58 53 51 48 46 45 50 65 87 103 116 138 155 151 143 147 158 154 140 143 158 164 170 176 176 176 182 186 181 168 162 164 168 177 182 184 189 194 193 191 194 203 206 204 205 203 202 208 211 209 210 211 211 211 209 206 207 203 197 198 199 198 198 198 196 196 194 194 196 197 198 203 207 206 201 199 200 201 202 200 197 197 200 206
55 55 51 49 47 42 41 45 53 65 78 87 101 122 133 134 136 142 146 141 144 157 166 173 176 173 174 183 185 182 178 171 167 173 180 183 187 191 194 196 199 204 211 214 217 219 215 212 214 210 204 206 214 219 218 215 213 213 207 203 204 207 208 209 207 208 210 211 211 212 215 218 220 222 221 217 213 206 204 207 208 209 209 208 209
54 50 46 45 43 39 39 42 48 55 62 70 81 96 112 123 132 136 136 133 139 154 162 163 156 151 156 168 174 181 184 171 167 175 178 179 186 192 196 200 204 209 214 226 239 235 225 221 218 211 205 206 216 225 226 227 228 225 218 214 213 215 216 216 215 217 220 221 222 225 228 232 234 235 235 234 230 223 217 214 213 214 216 215 214
56 53 49 46 41 37 36 36 40 46 52 62 76 88 97 107 117 120 120 120 124 134 136 124 117 127 144 158 168 178 179 173 180 186 177 170 177 191 202 208 210 212 219 239 250 238 229 224 217 214 214 214 218 225 228 230 232 231 228 223 222 221 220 221 224 228 231 231 233 237 239 240 239 239 239 239 238 236 234 230 226 223 219 217 215
63 59 53 49 43 38 36 35 38 43 48 56 68 79 84 89 93 95 102 113 119 120 114 104 105 118 132 139 142 147 143 147 165 171 166 166 170 176 192 205 211 217 234 256 254 237 233 228 218 216 218 219 223 227 230 232 232 232 231 228 226 226 225 227 231 235 240 242 242 242 243 243 241 240 241 241 240 241 240 238 237 232 225 220 217
74 66 59 55 47 40 39 40 42 47 50 53 62 72 73 73 77 81 90 100 104 103 99 94 96 105 112 116 121 126 120 116 120 126 135 142 140 138 146 156 162 167 199 265 247 230 231 231 226 224 224 224 228 231 234 236 236 235 234 233 232 233 234 235 238 240 243 246 246 245 243 243 244 244 244 243 242 242 243 242 241 239 234 230 227
82 73 67 62 55 52 51 50 50 52 54 56 63 69 68 70 75 77 81 86 86 86 84 81 82 87 91 93 99 105 106 103 105 109 116 122 123 128 130 122 111 106 102 90 87 132 203 224 230 232 231 231 232 235 237 240 242 242 240 239 239 241 242 242 243 244 245 245 244 243 243 244 244 244 244 245 244 243 242 240 241 242 240 238 236
80 75 75 72 64 61 58 57 58 59 61 62 65 68 69 71 74 75 75 75 75 75 74 72 71 72 76 79 82 84 84 85 90 97 103 105 104 106 108 102 94 94 96 92 82 74 76 358 262 257 256 250 244 244 244 246 248 249 246 244 244 244 245 246 247 248 248 248 246 244 244 245 245 244 243 243 244 243 241 240 240 239 239 239 238
74 70 74 77 74 69 63 60 61 64 66 65 64 66 68 69 69 70 69 68 68 67 65 65 64 63 64 67 68 68 67 66 67 75 83 87 86 86 87 85 83 82 80 79 73 62 54 34 343 302 284 280 276 269 264 260 259 259 256 254 251 249 248 248 249 250 251 252 252 251 250 250 249 247 246 244 243 242 241 240 238 237 239 242 243
86 83 78 77 79 78 73 67 65 65 67 67 66 67 69 68 68 67 66 65 64 63 61 60 58 56 56 57 57 57 56 52 49 49 53 58 61 64 65 63 65 68 67 67 63 46 32 23 8 341 306 289 283 287 287 283 279 276 272 268 264 260 257 254 252 251 252 252 252 253 253 252 251 250 247 245 244 242 240 238 237 240 245 249 252
86 89 86 83 83 81 78 71 65 62 63 65 66 66 68 69 69 68 67 66 63 61 61 60 57 54 52 49 48 48 48 45 41 36 35 37 38 40 40 36 35 35 33 31 29 20 9 360 351 343 324 300 289 296 300 295 293 291 288 285 280 274 269 265 261 259 257 256 255 254 255 254 252 250 248 245 243 242 242 240 240 243 246 250 253
87 88 87 86 83 80 78 75 70 65 63 64 63 63 65 67 68 68 69 68 66 63 62 61 58 55 53 50 46 44 43 42 38 31 26 24 24 25 25 22 18 16 11 7 2 358 355 349 342 338 328 309 296 299 300 295 294 297 295 292 290 284 277 273 272 269 266 264 262 260 259 258 254 251 249 248 247 246 246 245 245 244 243 245 245
90 89 87 87 87 86 85 83 81 78 76 77 78 76 72 69 68 68 67 67 67 64 62 60 57 53 51 48 45 42 41 41 38 32 24 18 15 15 14 12 11 9 5 359 350 344 345 344 341 338 331 318 305 300 301 298 296 299 299 295 293 290 282 276 276 274 271 269 266 264 262 261 259 254 249 249 251 252 249 247 245 242 239 239 238
87 88 91 91 89 89 87 85 85 87 87 87 85 82 79 79 78 76 72 71 70 66 62 60 55 50 46 41 39 38 38 39 39 36 30 23 16 12 8 7 8 8 4 359 350 344 339 337 337 336 333 329 319 308 304 303 303 307 309 306 301 298 291 284 281 278 276 272 269 267 264 263 263 261 255 251 250 252 252 247 240 237 237 237 238
88 89 93 90 85 84 83 82 82 83 84 84 84 83 83 84 84 82 79 76 71 64 59 55 51 48 45 41 38 37 36 38 39 37 34 30 24 19 12 9 8 6 4 1 355 348 339 333 331 330 328 329 326 318 311 308 308 310 315 316 314 311 305 295 287 282 280 277 275 274 272 269 268 265 263 260 256 256 257 250 240 238 240 239 238
94 97 94 86 80 78 78 76 74 75 78 82 85 85 84 82 82 82 80 74 65 58 52 47 43 42 41 39 38 37 37 37 35 33 32 31 28 21 13 10 7 3 1 359 353 349 342 333 329 327 324 323 322 319 315 311 309 310 312 315 317 317 313 302 290 283 279 278 278 279 279 279 276 272 267 265 261 260 258 251 242 240 238 236 234
89 97 96 87 81 78 74 69 68 73 79 85 86 85 83 81 80 78 72 63 58 54 50 47 44 40 36 33 30 29 31 30 28 27 27 26 22 15 7 4 0 357 356 353 349 346 342 335 330 326 323 321 319 317 316 312 310 309 309 310 313 315 314 308 297 286 279 275 275 277 278 279 280 277 272 267 263 259 256 252 245 237 233 233 234
79 91 95 88 83 78 71 69 72 78 83 86 86 85 84 83 81 73 62 56 53 50 47 46 44 41 37 34 29 24 23 21 17 16 14 13 11 6 1 359 357 355 354 351 349 347 342 339 335 329 326 323 321 318 317 315 313 310 307 306 307 309 311 310 304 297 290 282 275 273 274 276 279 278 273 268 262 256 254 253 247 240 237 238 236
75 84 89 84 80 77 75 76 78 80 80 78 76 79 83 83 77 64 54 50 46 43 41 40 38 37 35 32 27 23 20 15 11 9 8 8 6 2 1 1 359 358 356 352 350 347 343 340 337 333 329 327 324 322 320 318 317 313 309 306 306 307 309 308 304 303 305 300 287 276 273 274 275 276 274 269 261 255 253 252 251 248 242 237 231
74 77 80 80 80 81 82 82 81 78 75 71 68 72 78 78 68 53 45 41 38 36 35 33 31 31 31 29 25 21 17 14 12 11 11 10 6 2 359 357 355 353 351 347 344 341 339 336 334 333 331 328 327 325 322 322 322 319 313 310 306 304 305 308 308 309 313 312 301 286 276 274 275 274 272 267 261 257 255 252 251 247 237 228 221
73 71 73 78 83 86 87 85 82 77 75 72 68 68 72 69 55 44 37 32 31 32 30 27 25 24 24 22 20 17 15 13 11 8 4 0 358 354 351 348 347 345 342 339 336 333 332 331 330 329 328 327 326 326 324 324 324 322 319 316 312 307 304 306 310 313 315 315 310 296 281 275 273 272 268 262 257 254 253 251 247 238 227 221 213
70 68 72 81 88 89 88 86 81 76 73 70 62 58 60 58 46 37 29 26 28 28 25 22 21 20 18 14 11 9 6 3 360 356 354 353 352 349 345 341 338 335 331 330 328 325 324 325 324 324 324 323 322 323 324 323 322 321 321 319 315 311 306 305 308 312 313 313 311 302 286 275 271 267 261 254 250 249 249 246 237 225 216 210 200
67 63 74 87 91 91 89 84 77 68 65 62 52 46 45 43 36 29 21 21 24 21 18 18 19 18 15 10 6 2 356 352 350 349 350 350 347 345 341 333 328 325 322 320 319 317 318 320 319 319 319 317 315 318 320 317 312 312 314 313 310 307 304 301 303 307 308 307 306 300 287 275 267 258 247 240 238 237 236 231 220 208 202 196 188
85 82 86 91 90 90 88 81 69 57 50 49 41 34 29 26 24 19 13 15 17 13 10 13 14 12 9 2 356 353 350 348 348 347 348 347 343 343 341 334 330 327 321 315 312 311 312 313 311 311 312 312 313 317 317 311 304 304 306 304 300 299 298 296 298 301 301 298 296 291 281 267 251 238 229 224 223 221 214 206 198 194 190 185 180
107 107 106 103 97 94 88 77 65 47 35 33 26 19 17 15 11 3 2 8 11 7 5 8 7 2 358 352 348 346 345 346 347 348 349 346 342 341 342 340 338 335 328 319 313 310 311 311 310 311 315 317 317 318 315 308 300 299 301 299 295 294 293 292 295 298 293 285 282 277 268 257 240 225 218 212 210 211 203 191 183 180 178 177 175